• In France
  • List of Countries
  • For 7 days
  • Water Temperature
  • Satellite Maps
  • Weather Map
  • Weather Widgets
  • user-avatar
    Login

    Hourly Weather Arakani

    Today, 21 August, Tuesday

    Time Temperature Precipitation Wind Pressure Humidity
    00:00 +16°C° 0 mm 2 mps 689 mmHg 76%
    01:00 +16°C° 0 mm 3 mps 689 mmHg 75%
    02:00 +16°C° 0 mm 3 mps 689 mmHg 74%
    03:00 +16°C° 0 mm 3 mps 689 mmHg 76%
    04:00 +16°C° 0 mm 3 mps 689 mmHg 75%
    05:00 +16°C° 0 mm 3 mps 689 mmHg 74%
    06:00 +16°C° 0 mm 3 mps 689 mmHg 73%
    07:00 +19°C° 0 mm 3 mps 689 mmHg 66%
    08:00 +21°C° 0 mm 3 mps 690 mmHg 59%
    09:00 +25°C° 0 mm 3 mps 690 mmHg 52%
    10:00 +26°C° 0 mm 3 mps 690 mmHg 51%
    11:00 +27°C° 0 mm 4 mps 690 mmHg 49%
    12:00 +27°C° 0 mm 4 mps 690 mmHg 48%
    13:00 +27°C° 0.1 mm 4 mps 690 mmHg 50%
    14:00 +27°C° 0.1 mm 4 mps 690 mmHg 52%
    15:00 +27°C° 0.1 mm 4 mps 689 mmHg 54%
    16:00 +26°C° 0.1 mm 4 mps 689 mmHg 60%
    17:00 +25°C° 0.1 mm 3 mps 689 mmHg 65%
    18:00 +24°C° 0.1 mm 3 mps 689 mmHg 71%
    19:00 +21°C° 0 mm 3 mps 689 mmHg 74%
    20:00 +20°C° 0 mm 2 mps 688 mmHg 78%
    21:00 +19°C° 0 mm 2 mps 688 mmHg 81%
    22:00 +19°C° 0 mm 2 mps 688 mmHg 79%
    23:00 +18°C° 0 mm 2 mps 688 mmHg 77%

    Tomorrow, 22 August, Wednesday

    Time Temperature Precipitation Wind Pressure Humidity
    00:00 +18°C° 0 mm 2 mps 688 mmHg 74%
    01:00 +18°C° 0 mm 2 mps 688 mmHg 72%
    02:00 +18°C° 0 mm 2 mps 687 mmHg 69%
    03:00 +18°C° 0 mm 2 mps 687 mmHg 66%
    04:00 +18°C° 0 mm 2 mps 687 mmHg 64%
    05:00 +19°C° 0 mm 2 mps 688 mmHg 62%
    06:00 +19°C° 0 mm 2 mps 688 mmHg 59%
    07:00 +21°C° 0 mm 2 mps 688 mmHg 56%
    08:00 +24°C° 0 mm 1 mps 688 mmHg 52%
    09:00 +25°C° 0 mm 1 mps 689 mmHg 48%
    10:00 +26°C° 0 mm 1 mps 689 mmHg 48%
    11:00 +27°C° 0 mm 2 mps 689 mmHg 48%
    12:00 +28°C° 0 mm 2 mps 689 mmHg 47%
    13:00 +28°C° 0.2 mm 2 mps 688 mmHg 50%
    14:00 +27°C° 0.2 mm 3 mps 688 mmHg 52%
    15:00 +27°C° 0.2 mm 3 mps 688 mmHg 54%
    16:00 +26°C° 0.4 mm 2 mps 688 mmHg 60%
    17:00 +25°C° 0.4 mm 2 mps 688 mmHg 65%
    18:00 +24°C° 0.4 mm 1 mps 688 mmHg 71%
    19:00 +23°C° 0.3 mm 1 mps 688 mmHg 74%
    20:00 +22°C° 0.3 mm 1 mps 688 mmHg 76%
    21:00 +21°C° 0.3 mm 1 mps 688 mmHg 79%
    22:00 +20°C° 0.3 mm 2 mps 688 mmHg 79%
    23:00 +20°C° 0.3 mm 2 mps 688 mmHg 79%

    Day after tomorrow, 23 August, Thursday

    Time Temperature Precipitation Wind Pressure Humidity
    00:00 +19°C° 0.3 mm 2 mps 688 mmHg 79%
    01:00 +19°C° 0.1 mm 2 mps 688 mmHg 79%
    02:00 +19°C° 0.1 mm 2 mps 688 mmHg 79%
    03:00 +18°C° 0.1 mm 2 mps 688 mmHg 79%
    04:00 +19°C° 0 mm 2 mps 688 mmHg 78%
    05:00 +19°C° 0 mm 2 mps 689 mmHg 77%
    06:00 +19°C° 0 mm 2 mps 689 mmHg 76%
    07:00 +21°C° 0 mm 2 mps 689 mmHg 70%
    08:00 +24°C° 0 mm 2 mps 690 mmHg 64%
    09:00 +25°C° 0 mm 2 mps 690 mmHg 57%
    10:00 +26°C° 0.2 mm 2 mps 690 mmHg 56%
    11:00 +26°C° 0.2 mm 3 mps 690 mmHg 54%
    12:00 +27°C° 0.2 mm 3 mps 690 mmHg 53%
    13:00 +27°C° 0.4 mm 3 mps 690 mmHg 54%
    14:00 +26°C° 0.4 mm 3 mps 690 mmHg 56%
    15:00 +26°C° 0.4 mm 3 mps 690 mmHg 57%
    16:00 +25°C° 0.1 mm 3 mps 690 mmHg 61%
    17:00 +24°C° 0.1 mm 2 mps 689 mmHg 65%
    18:00 +23°C° 0.1 mm 2 mps 689 mmHg 69%
    19:00 +21°C° 0 mm 2 mps 690 mmHg 73%
    20:00 +21°C° 0 mm 1 mps 690 mmHg 78%
    21:00 +20°C° 0 mm 1 mps 690 mmHg 82%
    22:00 +19°C° 0 mm 1 mps 690 mmHg 81%
    23:00 +19°C° 0 mm 1 mps 690 mmHg 81%

    24 August, Friday

    Time Temperature Precipitation Wind Pressure Humidity
    00:00 +19°C° 0 mm 1 mps 690 mmHg 80%
    01:00 +19°C° 0 mm 1 mps 690 mmHg 79%
    02:00 +18°C° 0 mm 1 mps 689 mmHg 79%
    03:00 +18°C° 0 mm 1 mps 689 mmHg 79%
    04:00 +18°C° 0 mm 1 mps 689 mmHg 78%
    05:00 +19°C° 0 mm 1 mps 689 mmHg 78%
    06:00 +19°C° 0 mm 1 mps 690 mmHg 77%
    07:00 +20°C° 0 mm 2 mps 690 mmHg 72%
    08:00 +23°C° 0 mm 2 mps 690 mmHg 66%
    09:00 +24°C° 0 mm 3 mps 691 mmHg 61%
    10:00 +25°C° 0 mm 3 mps 690 mmHg 60%
    11:00 +25°C° 0 mm 4 mps 690 mmHg 59%
    12:00 +26°C° 0 mm 4 mps 690 mmHg 58%
    13:00 +26°C° 0.1 mm 4 mps 690 mmHg 61%
    14:00 +25°C° 0.1 mm 4 mps 690 mmHg 63%
    15:00 +25°C° 0.1 mm 4 mps 689 mmHg 65%
    16:00 +24°C° 0.1 mm 3 mps 689 mmHg 68%
    17:00 +22°C° 0.1 mm 3 mps 689 mmHg 71%
    18:00 +21°C° 0.1 mm 3 mps 689 mmHg 75%
    19:00 +20°C° 0.1 mm 2 mps 689 mmHg 77%
    20:00 +19°C° 0.1 mm 2 mps 689 mmHg 80%
    21:00 +18°C° 0.1 mm 2 mps 689 mmHg 82%
    22:00 +17°C° 0 mm 2 mps 689 mmHg 81%
    23:00 +17°C° 0 mm 2 mps 689 mmHg 79%

    25 August, Saturday

    Time Temperature Precipitation Wind Pressure Humidity
    00:00 +17°C° 0 mm 2 mps 689 mmHg 78%
    01:00 +17°C° 0 mm 2 mps 689 mmHg 77%
    02:00 +17°C° 0 mm 2 mps 688 mmHg 76%
    03:00 +16°C° 0 mm 2 mps 688 mmHg 75%
    04:00 +17°C° 0 mm 2 mps 688 mmHg 75%
    05:00 +17°C° 0 mm 2 mps 688 mmHg 74%
    06:00 +17°C° 0 mm 2 mps 688 mmHg 73%
    07:00 +19°C° 0 mm 2 mps 689 mmHg 67%
    08:00 +21°C° 0 mm 3 mps 689 mmHg 62%
    09:00 +24°C° 0 mm 3 mps 689 mmHg 56%
    10:00 +25°C° 0 mm 3 mps 689 mmHg 54%
    11:00 +26°C° 0 mm 4 mps 689 mmHg 53%
    12:00 +27°C° 0 mm 4 mps 689 mmHg 51%
    13:00 +27°C° 0 mm 4 mps 689 mmHg 53%
    14:00 +26°C° 0 mm 4 mps 689 mmHg 54%
    15:00 +26°C° 0 mm 4 mps 689 mmHg 55%
    16:00 +25°C° 0 mm 4 mps 688 mmHg 59%
    17:00 +23°C° 0 mm 4 mps 688 mmHg 64%
    18:00 +22°C° 0 mm 3 mps 688 mmHg 68%
    19:00 +20°C° 0 mm 3 mps 688 mmHg 71%
    20:00 +19°C° 0 mm 3 mps 688 mmHg 74%
    21:00 +18°C° 0 mm 2 mps 688 mmHg 77%
    22:00 +18°C° 0 mm 2 mps 688 mmHg 74%
    23:00 +18°C° 0 mm 2 mps 688 mmHg 72%

    26 August, Sunday

    Time Temperature Precipitation Wind Pressure Humidity
    00:00 +18°C° 0 mm 2 mps 687 mmHg 69%
    01:00 +17°C° 0 mm 2 mps 687 mmHg 67%
    02:00 +17°C° 0 mm 2 mps 687 mmHg 65%
    03:00 +17°C° 0 mm 2 mps 687 mmHg 63%
    04:00 +17°C° 0 mm 2 mps 687 mmHg 62%
    05:00 +18°C° 0 mm 2 mps 687 mmHg 61%
    06:00 +18°C° 0 mm 2 mps 687 mmHg 60%
    07:00 +20°C° 0 mm 3 mps 687 mmHg 53%
    08:00 +24°C° 0 mm 3 mps 688 mmHg 47%
    09:00 +26°C° 0 mm 3 mps 688 mmHg 40%
    10:00 +27°C° 0 mm 4 mps 688 mmHg 40%
    11:00 +28°C° 0 mm 4 mps 687 mmHg 39%
    12:00 +29°C° 0 mm 4 mps 687 mmHg 39%
    13:00 +29°C° 0 mm 5 mps 687 mmHg 41%
    14:00 +29°C° 0 mm 5 mps 686 mmHg 43%
    15:00 +28°C° 0 mm 5 mps 686 mmHg 46%
    16:00 +27°C° 0 mm 4 mps 686 mmHg 51%
    17:00 +25°C° 0 mm 4 mps 686 mmHg 57%
    18:00 +24°C° 0 mm 3 mps 686 mmHg 62%
    19:00 +22°C° 0 mm 3 mps 686 mmHg 64%
    20:00 +20°C° 0 mm 3 mps 685 mmHg 66%
    21:00 +19°C° 0 mm 2 mps 685 mmHg 67%
    22:00 +19°C° 0 mm 2 mps 685 mmHg 64%
    23:00 +19°C° 0 mm 2 mps 685 mmHg 61%
    Show more